Погода в Бычихе

Россия / Хабаровский край     48°18′01″N   134°49′38″E
темп.,
°C
ветер,
м/с
пор.,
м/с
влажн.,
%
обл.,
%
осадки,
мм/ч
давл.,
гПа
погр.,
м
20 апреля, вт
вт2001:00+5сз91447100 0.0 10001250
04:000зсз1018380 0.0 10021346
07:00−1зсз817455 0.0 10051722
10:00+1зсз111632100 0.0 10042483
13:00+2сз91329100 0.0 10062689
16:00+6сз811255 0.0 10072116
19:00+6сз7123188 0.0 10091676
22:00+4зсз513380 0.0 1011507
21 апреля, ср
ср2101:00+3зсз513390 0.0 1013636
04:00+1зсз39390 0.0 1015224
07:00+1з25400 0.0 1017136
10:00+9сз48211 0.0 1017838
13:00+15сз58195 0.0 10171346
16:00+17сз46190 0.0 10161468
19:00+16ссз22280 0.0 101616
22:00+10вюв22380 0.0 101818
22 апреля, чт
чт2201:00+8в23450 0.0 102031
04:00+6в33460 0.0 102133
07:00+7в22450 0.0 102224
10:00+15юв13270 0.0 1021485
13:00+20ююв34220 0.0 10201117
16:00+23ю34184 0.0 10181704
19:00+21ю222416 0.0 101838
22:00+16ю2232100 0.0 101917
23 апреля, пт
пт2301:00+14ю2238100 0.0 101922
04:00+12ю3345100 0.0 102043
07:00+11ю3555100 0.0 1021125
10:00+15ююз4540100 0.0 1020520
13:00+19юз4632100 0.0 1019980
16:00+20зюз5732100 0.0 10181477
19:00+14ссз6963100 0.0 1018589
22:00+10сз5974100 0.3 1019667
24 апреля, сб
сб2401:00+8сз71145100 0.1 1019741
04:00+4ссв4587100 0.3 1019727
07:00+3ссв2596100 0.8 1021358
10:00+4зсз3379100 0.9 1021809
13:00+8сз473715 0.1 10191850
16:00+11сз71123100 0.1 10163008
19:00+8сз61230100 0.0 10152703
22:00+6сз71335100 0.1 10151172